Time,TemperatureF,DewpointF,PressureIn,WindDirection,WindDirectionDegrees,WindSpeedMPH,WindSpeedGustMPH,Humidity,HourlyPrecipIn,Conditions,Clouds,dailyrainin,SolarRadiationWatts/m^2,SoftwareType,DateUTC
2014-08-29 00:07:00,84.6,69.0,29.85,NW,325,4.0,7.0,60,0.00,,,0.00,0,weatherlink.com 1.10,2014-08-29 05:07:00,
2014-08-29 00:22:00,79.4,65.0,29.85,NW,313,11.0,24.0,62,0.00,,,0.00,0,weatherlink.com 1.10,2014-08-29 05:22:00,
2014-08-29 00:37:00,76.9,65.0,29.86,NW,326,11.0,15.0,67,0.00,,,0.00,0,weatherlink.com 1.10,2014-08-29 05:37:00,
2014-08-29 00:52:00,75.4,65.0,29.87,NNW,340,14.0,21.0,70,0.00,,,0.00,0,weatherlink.com 1.10,2014-08-29 05:52:00,
2014-08-29 01:07:00,74.6,65.0,29.88,NNW,338,7.0,16.0,72,0.00,,,0.00,0,weatherlink.com 1.10,2014-08-29 06:07:00,
2014-08-29 01:22:00,72.9,65.0,29.88,NNW,327,8.0,19.0,77,0.00,,,0.00,0,weatherlink.com 1.10,2014-08-29 06:22:00,
2014-08-29 01:38:00,72.0,65.0,29.89,NW,319,4.0,17.0,79,0.00,,,0.00,0,weatherlink.com 1.10,2014-08-29 06:38:00,
2014-08-29 01:53:00,71.7,66.0,29.89,NNW,346,6.0,12.0,81,0.00,,,0.00,0,weatherlink.com 1.10,2014-08-29 06:53:00,
2014-08-29 02:08:00,71.2,66.0,29.89,NW,319,6.0,11.0,83,0.00,,,0.00,0,weatherlink.com 1.10,2014-08-29 07:08:00,
2014-08-29 02:23:00,70.8,66.0,29.89,NNW,333,2.0,3.0,84,0.00,,,0.00,0,weatherlink.com 1.10,2014-08-29 07:23:00,
2014-08-29 02:38:00,70.2,66.0,29.88,NNW,337,6.0,12.0,86,0.11,,,0.11,0,weatherlink.com 1.10,2014-08-29 07:38:00,
2014-08-29 02:53:00,69.3,66.0,29.88,NNW,347,3.0,7.0,88,0.13,,,0.13,0,weatherlink.com 1.10,2014-08-29 07:53:00,
2014-08-29 03:08:00,68.9,66.0,29.87,North,5,4.0,7.0,90,0.13,,,0.13,0,weatherlink.com 1.10,2014-08-29 08:08:00,
2014-08-29 03:23:00,68.8,66.0,29.87,NNE,22,4.0,7.0,90,0.11,,,0.13,0,weatherlink.com 1.10,2014-08-29 08:23:00,
2014-08-29 03:38:00,68.9,66.0,29.88,SW,227,6.0,6.0,91,0.02,,,0.13,0,weatherlink.com 1.10,2014-08-29 08:38:00,
2014-08-29 03:53:00,68.6,66.0,29.88,NNW,342,3.0,11.0,92,0.13,,,0.26,0,weatherlink.com 1.10,2014-08-29 08:53:00,
2014-08-29 04:08:00,68.5,66.0,29.88,East,100,3.0,8.0,92,0.22,,,0.35,0,weatherlink.com 1.10,2014-08-29 09:08:00,
2014-08-29 04:23:00,68.4,66.0,29.86,SE,136,12.0,13.0,93,0.26,,,0.39,0,weatherlink.com 1.10,2014-08-29 09:23:00,
2014-08-29 04:38:00,68.1,66.0,29.85,East,98,6.0,9.0,93,0.29,,,0.43,0,weatherlink.com 1.10,2014-08-29 09:38:00,
2014-08-29 04:53:00,68.3,67.0,29.84,SE,140,2.0,9.0,94,0.18,,,0.46,0,weatherlink.com 1.10,2014-08-29 09:53:00,
2014-08-29 05:08:00,68.5,67.0,29.85,South,170,1.0,8.0,94,0.13,,,0.48,0,weatherlink.com 1.10,2014-08-29 10:08:00,
2014-08-29 05:23:00,68.6,67.0,29.84,SE,144,5.0,7.0,94,0.09,,,0.48,0,weatherlink.com 1.10,2014-08-29 10:23:00,
2014-08-29 05:38:00,68.7,67.0,29.83,ESE,121,9.0,11.0,94,0.07,,,0.50,0,weatherlink.com 1.10,2014-08-29 10:38:00,
2014-08-29 05:53:00,68.9,68.0,29.80,South,170,4.0,17.0,95,0.05,,,0.52,0,weatherlink.com 1.10,2014-08-29 10:53:00,
2014-08-29 06:08:00,69.3,68.0,29.83,ENE,57,3.0,9.0,95,0.05,,,0.53,0,weatherlink.com 1.10,2014-08-29 11:08:00,
2014-08-29 06:23:00,69.4,68.0,29.85,NNW,336,3.0,6.0,95,0.06,,,0.54,0,weatherlink.com 1.10,2014-08-29 11:23:00,
2014-08-29 06:38:00,69.3,68.0,29.85,SE,141,4.0,5.0,95,0.04,,,0.54,0,weatherlink.com 1.10,2014-08-29 11:38:00,
2014-08-29 06:53:00,69.2,68.0,29.84,SSE,149,4.0,9.0,95,0.02,,,0.54,0,weatherlink.com 1.10,2014-08-29 11:53:00,
2014-08-29 07:08:00,69.2,68.0,29.83,South,170,2.0,6.0,95,0.01,,,0.54,5,weatherlink.com 1.10,2014-08-29 12:08:00,
2014-08-29 07:23:00,69.3,68.0,29.83,SSW,205,3.0,3.0,95,0.00,,,0.54,18,weatherlink.com 1.10,2014-08-29 12:23:00,
2014-08-29 07:38:00,69.6,68.0,29.84,WSW,256,2.0,5.0,95,0.00,,,0.54,33,weatherlink.com 1.10,2014-08-29 12:38:00,
2014-08-29 07:53:00,69.8,68.0,29.84,WNW,303,4.0,4.0,95,0.00,,,0.54,35,weatherlink.com 1.10,2014-08-29 12:53:00,
2014-08-29 08:08:00,70.0,69.0,29.84,WSW,246,2.0,5.0,95,0.00,,,0.54,91,weatherlink.com 1.10,2014-08-29 13:08:00,
2014-08-29 08:23:00,70.3,69.0,29.84,SW,228,6.0,7.0,95,0.00,,,0.54,142,weatherlink.com 1.10,2014-08-29 13:23:00,
2014-08-29 08:38:00,70.7,69.0,29.84,SW,234,5.0,9.0,95,0.00,,,0.54,213,weatherlink.com 1.10,2014-08-29 13:38:00,
2014-08-29 08:53:00,71.3,70.0,29.85,South,184,2.0,7.0,95,0.00,,,0.54,246,weatherlink.com 1.10,2014-08-29 13:53:00,
2014-08-29 09:09:00,72.3,71.0,29.86,SSW,213,4.0,8.0,94,0.00,,,0.54,422,weatherlink.com 1.10,2014-08-29 14:09:00,
2014-08-29 09:24:00,73.3,71.0,29.85,SSE,164,5.0,10.0,92,0.00,,,0.54,513,weatherlink.com 1.10,2014-08-29 14:24:00,
2014-08-29 09:39:00,74.4,71.0,29.86,SSW,210,9.0,11.0,89,0.00,,,0.54,410,weatherlink.com 1.10,2014-08-29 14:39:00,
2014-08-29 09:54:00,74.9,71.0,29.87,SSW,198,2.0,8.0,86,0.00,,,0.54,264,weatherlink.com 1.10,2014-08-29 14:54:00,
2014-08-29 10:09:00,76.2,70.0,29.88,SE,133,6.0,10.0,82,0.00,,,0.54,185,weatherlink.com 1.10,2014-08-29 15:09:00,
2014-08-29 10:24:00,76.7,71.0,29.87,SSW,206,6.0,10.0,81,0.00,,,0.54,524,weatherlink.com 1.10,2014-08-29 15:24:00,
2014-08-29 10:39:00,77.6,70.0,29.87,SSW,197,5.0,12.0,78,0.00,,,0.54,696,weatherlink.com 1.10,2014-08-29 15:39:00,
2014-08-29 10:54:00,78.2,70.0,29.88,SSW,207,7.0,9.0,76,0.00,,,0.54,536,weatherlink.com 1.10,2014-08-29 15:54:00,
2014-08-29 11:09:00,79.3,71.0,29.88,SW,218,3.0,10.0,76,0.00,,,0.54,752,weatherlink.com 1.10,2014-08-29 16:09:00,